EST,Max TemperatureF,Mean TemperatureF,Min TemperatureF,Max Dew PointF,MeanDew PointF,Min DewpointF,Max Humidity, Mean Humidity, Min Humidity, Max Sea Level PressureIn, Mean Sea Level PressureIn, Min Sea Level PressureIn, Max VisibilityMiles, Mean VisibilityMiles, Min VisibilityMiles, Max Wind SpeedMPH, Mean Wind SpeedMPH, Max Gust SpeedMPH,PrecipitationIn, CloudCover, Events, WindDirDegrees
2014-1-1,82,78,73,74,72,69,93,86,79,30.14,30.09,30.03,10,10,10,20,13,25,0.00,2,,106
2014-1-2,80,77,74,72,71,68,93,84,74,30.04,29.99,29.93,10,10,6,18,10,23,0.00,0,,206
2014-1-3,77,71,64,72,59,46,87,68,48,30.17,30.05,29.95,10,10,10,23,14,32,0.00,5,,10
2014-1-4,70,67,64,70,68,59,100,89,78,30.14,30.08,30.03,10,5,1,20,10,27,4.13,8,Rain-Thunderstorm,31
2014-1-5,80,75,69,73,70,66,100,88,76,30.08,30.01,29.93,10,9,5,30,10,39,0.18,3,Rain,151
2014-1-6,81,70,59,74,68,53,100,90,79,30.20,30.05,30.00,10,9,3,30,9,43,0.19,5,Rain,360
2014-1-7,61,58,55,55,48,39,86,69,51,30.31,30.24,30.18,10,10,10,26,17,36,T,7,Rain,13
2014-1-8,69,63,57,68,61,55,100,94,87,30.25,30.19,30.14,10,9,2,20,13,26,0.14,7,Rain,39
2014-1-9,74,71,67,72,68,66,100,94,87,30.21,30.14,30.08,10,10,8,15,8,21,0.02,4,Rain,47
2014-1-10,80,74,68,73,71,68,100,90,79,30.15,30.09,30.03,10,10,10,15,9,23,0.00,0,,88
2014-1-11,80,77,73,73,72,71,94,84,74,30.12,30.06,30.01,10,10,6,17,8,23,0.00,1,,156
2014-1-12,75,73,71,71,68,64,100,87,73,30.16,30.12,30.06,10,9,4,17,6,22,0.00,4,,19
2014-1-13,80,76,71,73,70,68,93,84,74,30.13,30.08,30.04,10,10,10,18,8,23,T,3,Rain,103
2014-1-14,80,77,73,72,71,69,87,81,74,30.06,30.00,29.97,10,10,10,14,9,20,0.00,2,Thunderstorm,201
2014-1-15,73,70,67,69,63,56,90,79,68,30.08,30.02,29.97,10,10,10,20,11,25,T,5,Thunderstorm,339
2014-1-16,69,64,58,59,52,47,78,70,61,30.17,30.09,30.00,10,10,10,25,14,34,T,5,Rain,350
2014-1-17,64,60,56,48,45,41,72,60,48,30.23,30.17,30.13,10,10,10,14,9,18,0.00,2,,5
2014-1-18,71,65,58,57,51,45,75,63,51,30.25,30.20,30.17,10,10,10,18,8,24,0.00,0,,360
2014-1-19,69,63,57,55,51,47,86,71,55,30.29,30.22,30.19,10,10,10,14,6,17,0.00,0,,350
2014-1-20,73,65,56,59,55,51,93,73,53,30.20,30.14,30.09,10,10,10,9,4,12,0.00,1,,211
2014-1-21,73,68,62,67,62,56,93,75,57,30.08,30.01,29.95,10,9,0,20,7,29,0.33,6,Fog-Rain,286
2014-1-22,69,64,59,63,54,44,81,69,57,30.19,30.09,29.96,10,10,10,23,13,29,0.00,3,,340
2014-1-23,66,61,56,57,50,45,84,68,52,30.27,30.22,30.17,10,10,10,18,10,22,0.00,0,,37
2014-1-24,68,65,61,58,56,54,90,75,59,30.34,30.26,30.20,10,10,10,22,12,28,0.00,1,,31
2014-1-25,75,68,60,64,60,56,93,79,64,30.20,30.14,30.08,10,10,10,17,8,23,0.00,2,,17
2014-1-26,76,69,62,66,64,61,100,85,69,30.09,30.05,30.00,10,10,10,10,7,14,0.00,1,,113
2014-1-27,78,74,69,69,67,63,100,87,73,30.05,30.01,29.98,10,10,10,12,6,17,0.00,0,,158
2014-1-28,77,73,68,72,69,67,100,88,76,30.09,30.03,29.99,10,10,10,13,6,24,0.00,1,,82
2014-1-29,80,73,66,74,69,64,100,91,82,30.06,30.02,29.98,10,9,1,21,8,26,1.15,6,Rain-Thunderstorm,82
2014-1-30,69,67,64,67,65,63,100,94,87,30.10,30.05,30.02,10,9,3,18,11,27,0.50,8,Rain,31
2014-1-31,79,74,68,73,71,66,100,90,79,30.09,30.03,29.98,10,10,9,10,6,15,0.04,5,Rain,101